Weather reports worldwide

Advertisment
Magdeburg, Germany (10361): temperature & dewpoint: 09.09.2019 10:00:00 - 15.09.2019 10:00:00 (CEST)Magdeburg, Germany (10361): temperature 5cm & temperature -5cm: 09.09.2019 10:00:00 - 15.09.2019 10:00:00 (CEST)Magdeburg, Germany (10361): temperature -20cm & temperature -100cm: 09.09.2019 10:00:00 - 15.09.2019 10:00:00 (CEST)Magdeburg, Germany (10361): wind speed & gusts: 09.09.2019 10:00:00 - 15.09.2019 10:00:00 (CEST)Magdeburg, Germany (10361): wind direction: 09.09.2019 10:00:00 - 15.09.2019 10:00:00 (CEST)Magdeburg, Germany (10361): reduced air pressure: 09.09.2019 10:00:00 - 15.09.2019 10:00:00 (CEST)Magdeburg, Germany (10361): visibility: 09.09.2019 10:00:00 - 15.09.2019 10:00:00 (CEST)Magdeburg, Germany (10361): sunshine duration: 09.09.2019 10:00:00 - 15.09.2019 10:00:00 (CEST)Magdeburg, Germany (10361): precipitation: 09.09.2019 10:00:00 - 15.09.2019 10:00:00 (CEST)
Date & Time tt [°C] td [°C] tt 5cm [°C] tt -5cm [°C] tt -20cm [°C] tt -100cm [°C] ff [km/h] ff [kn] fx [km/h] fx [kn] dd ppp [hPa] vv [km] sd [min] rr [mm]
15.09.2019 10:00:00 18,3 6,8 19,4 15,2 15,1 17,3 15 8 29 16 W 1022,3 75 60 0,0
15.09.2019 09:00:00 15,6 8,1 15,6 11,8 15,3 17,3 10 6 18 10 SW 1022,6 46 60 0,0
15.09.2019 08:00:00 11,6 6,7 9,5 10,1 15,6 17,3 9 5 13 7 SW 1023,0 38 21 0,0
15.09.2019 07:00:00 8,8 5,9 5,3 10,0 15,9 17,3 3 2 10 5 S 1023,2 39 0 0,0
15.09.2019 06:00:00 9,9 5,6 7,3 10,4 16,2 17,3 6 3 11 6 S 1023,6 44 0 0,0
15.09.2019 05:00:00 10,8 5,3 7,9 10,7 16,6 17,3 7 4 14 8 SSW 1024,5 40 0 0,0
15.09.2019 04:00:00 9,6 4,9 6,6 11,0 16,9 17,3 8 5 12 7 S 1025,5 47 0 0,0
15.09.2019 03:00:00 9,5 5,0 5,9 11,4 17,3 17,3 4 2 10 6 S 1026,3 42 0 0,0
15.09.2019 02:00:00 9,5 5,3 5,5 12,0 17,8 17,3 5 3 9 5 SSW 1027,0 43 0 0,0
15.09.2019 01:00:00 9,8 5,8 6,2 12,7 18,2 17,4 4 2 8 4 SSW 1027,8 39 0 0,0
15.09.2019 00:00:00 9,8 6,2 6,3 13,6 18,6 17,4 5 3 7 4 S 1028,9 31 0 0,0
14.09.2019 23:00:00 10,7 5,4 7,0 14,6 19,1 17,4 4 2 6 4 SSW 1029,3 41 0 0,0
14.09.2019 22:00:00 11,6 6,2 7,8 15,8 19,5 17,4 4 2 6 3 S 1029,7 44 0 0,0
14.09.2019 21:00:00 12,9 6,9 9,0 17,3 19,7 17,4 3 2 6 3 S 1030,5 32 0 0,0
14.09.2019 20:00:00 14,6 5,9 10,9 19,5 19,9 17,4 2 1 9 5 SSE 1030,6 42 2 0,0
14.09.2019 19:00:00 17,8 4,5 16,3 22,2 19,7 17,4 5 3 11 6 E 1030,2 61 37 0,0
14.09.2019 18:00:00 19,1 3,3 20,2 25,0 19,3 17,4 3 2 11 6 E 1030,6 53 60 0,0
14.09.2019 17:00:00 19,6 4,0 22,1 26,7 18,7 17,4 4 2 14 8 WSW 1031,5 50 60 0,0
14.09.2019 16:00:00 19,2 4,1 22,9 27,5 18,0 17,4 5 3 16 9 WSW 1032,1 65 60 0,0
14.09.2019 15:00:00 18,7 4,0 23,8 27,2 17,2 17,4 8 4 16 9 NE 1033,2 44 60 0,0
14.09.2019 14:00:00 17,7 3,8 22,6 26,1 16,4 17,4 4 2 14 8 E 1033,6 75 56 0,0
14.09.2019 13:00:00 17,3 4,6 24,0 24,4 15,8 17,4 6 3 13 7 NE 1034,2 58 60 0,0
14.09.2019 12:00:00 17,2 6,5 21,3 21,9 15,2 17,4 5 3 12 7 WNW 1035,2 75 60 0,0
14.09.2019 11:00:00 15,8 6,6 19,2 18,5 15,0 17,4 6 3 13 7 N 1035,4 43 60 0,0
14.09.2019 10:00:00 14,1 7,8 15,9 14,6 15,0 17,4 4 2 8 5 NW 1035,3 34 60 0,0
14.09.2019 09:00:00 12,0 8,0 10,3 10,5 15,2 17,4 3 2 7 4 WNW 1035,4 33 60 0,0
14.09.2019 08:00:00 7,8 6,7 5,4 8,9 15,6 17,4 3 2 6 4 W 1035,5 31 34 0,0
14.09.2019 07:00:00 7,0 6,0 3,4 8,8 16,0 17,4 4 2 9 5 W 1035,4 28 0 0,0
14.09.2019 06:00:00 7,4 6,0 4,1 9,4 16,4 17,4 5 3 9 5 WNW 1035,2 33 0 0,0
14.09.2019 05:00:00 7,7 6,1 4,7 9,9 16,8 17,4 5 3 8 5 W 1035,0 36 0 0,0
14.09.2019 04:00:00 8,6 6,6 5,0 10,6 17,2 17,4 5 3 8 4 WNW 1035,1 34 0 0,0
14.09.2019 03:00:00 8,6 6,6 5,0 11,3 17,6 17,4 4 2 9 5 NW 1035,1 35 0 0,0
14.09.2019 02:00:00 10,3 6,9 6,9 12,1 18,0 17,4 5 3 9 5 NNW 1034,9 39 0 0,0
14.09.2019 01:00:00 10,9 6,5 8,1 13,0 18,5 17,4 3 2 9 5 NW 1034,9 44 0 0,0
14.09.2019 00:00:00 11,3 6,6 7,7 14,2 18,9 17,4 2 1 8 4 WNW 1034,6 45 0 0,0
13.09.2019 23:00:00 13,3 6,2 9,2 15,2 19,2 17,4 4 2 18 10 NNW 1034,0 54 0 0,0
13.09.2019 22:00:00 15,6 6,3 13,5 16,7 19,6 17,4 8 4 24 13 NNW 1033,5 46 0 0,0
13.09.2019 21:00:00 16,5 7,4 14,7 17,7 19,8 17,4 9 5 16 9 NNW 1033,1 48 0 0,0
13.09.2019 20:00:00 17,7 7,8 15,8 19,5 19,9 17,4 8 5 26 14 N 1032,0 38 0 0,0
13.09.2019 19:00:00 19,6 8,7 18,8 21,7 19,9 17,5 10 5 26 14 NNW 1031,1 63 2 0,0
13.09.2019 18:00:00 20,6 10,0 20,4 23,9 19,6 17,5 11 6 27 15 N 1030,7 61 31 0,0
13.09.2019 17:00:00 21,6 9,4 22,9 25,6 19,3 17,5 11 6 30 16 NNW 1030,2 50 44 0,0
13.09.2019 16:00:00 21,6 10,5 22,9 25,3 18,8 17,5 10 5 37 20 NNW 1030,0 75 35 0,0
13.09.2019 15:00:00 21,2 12,4 22,4 24,3 18,4 17,5 12 6 37 20 NNW 1029,8 71 5 0,0
13.09.2019 14:00:00 22,4 14,4 24,3 27,1 17,8 17,5 15 8 34 18 W 1028,9 39 55 0,0
13.09.2019 13:00:00 19,4 15,8 20,0 23,2 17,3 17,5 20 11 42 23 W 1028,9 14 11 0,0
13.09.2019 12:00:00 21,7 14,6 24,2 22,6 17,0 17,5 20 11 43 23 W 1028,5 38 37 0,0
13.09.2019 11:00:00 20,4 14,9 22,5 19,8 16,8 17,5 23 12 39 21 W 1028,2 26 13 0,0
13.09.2019 10:00:00 19,2 14,4 19,2 17,3 16,7 17,5 16 9 37 20 W 1028,1 40 0 0,0
13.09.2019 09:00:00 18,8 13,7 18,3 16,4 16,8 17,5 13 7 25 14 WSW 1027,6 44 0 0,0
13.09.2019 08:00:00 17,8 13,1 16,9 15,2 16,8 17,5 10 5 16 9 SW 1027,2 40 2 0,0
13.09.2019 07:00:00 16,9 12,6 14,9 14,7 17,0 17,5 9 5 16 8 SW 1027,1 32 0 0,0
13.09.2019 06:00:00 16,7 12,3 15,6 14,7 17,1 17,5 10 6 17 9 SW 1026,9 36 0 0,0
13.09.2019 05:00:00 16,0 12,0 15,0 14,4 17,4 17,5 9 5 13 7 SW 1026,8 38 0 0,0
13.09.2019 04:00:00 14,5 11,7 10,7 13,7 17,6 17,5 7 4 12 6 SSW 1027,0 34 0 0,0
13.09.2019 03:00:00 16,5 12,1 13,5 14,5 17,9 17,6 9 5 15 8 SW 1027,3 45 0 0,0
13.09.2019 02:00:00 16,4 12,0 14,0 15,1 18,2 17,6 8 4 14 7 SW 1027,4 44 0 0,0
13.09.2019 01:00:00 16,3 11,9 12,8 15,4 18,5 17,6 6 3 12 7 SW 1027,4 49 0 0,0
13.09.2019 00:00:00 17,0 11,8 13,3 16,1 18,7 17,6 8 4 12 7 SW 1027,5 48 0 0,0
12.09.2019 23:00:00 18,7 11,9 14,9 16,7 19,0 17,6 8 4 12 7 WSW 1027,5 47 0 0,0
12.09.2019 22:00:00 18,7 12,2 15,2 17,5 19,3 17,6 6 4 11 6 WSW 1027,5 50 0 0,0
12.09.2019 21:00:00 18,7 12,5 14,5 18,6 19,5 17,6 6 3 13 7 WSW 1027,4 41 0 0,0
12.09.2019 20:00:00 20,7 12,7 16,2 20,3 19,5 17,6 6 3 15 8 SW 1026,8 59 0 0,0
12.09.2019 19:00:00 22,2 12,5 20,2 22,3 19,3 17,6 8 4 18 10 WSW 1026,7 60 47 0,0
12.09.2019 18:00:00 23,3 12,8 24,0 24,0 19,0 17,6 11 6 22 12 W 1026,4 55 29 0,0
12.09.2019 17:00:00 23,0 12,4 22,9 25,6 18,5 17,7 12 7 28 15 W 1026,8 55 50 0,0
12.09.2019 16:00:00 22,8 12,0 23,5 26,3 17,9 17,7 14 7 27 15 WSW 1026,9 58 42 0,0
12.09.2019 15:00:00 21,4 13,2 22,3 24,8 17,5 17,7 11 6 28 15 W 1027,3 52 38 0,0
12.09.2019 14:00:00 20,3 13,8 21,9 22,7 17,1 17,7 11 6 23 13 W 1027,7 37 9 0,0
12.09.2019 13:00:00 20,0 14,5 21,9 21,7 16,8 17,7 12 7 27 14 W 1027,8 39 5 0,0
12.09.2019 12:00:00 18,7 14,5 19,2 19,0 16,6 17,7 8 5 22 12 W 1027,6 44 0 0,0
12.09.2019 11:00:00 18,4 13,7 19,0 18,7 16,4 17,7 10 5 19 10 W 1027,1 43 10 0,0
12.09.2019 10:00:00 18,1 13,3 20,0 18,2 16,3 17,7 8 4 20 11 WSW 1026,7 42 19 0,0
12.09.2019 09:00:00 16,8 13,1 16,5 15,9 16,3 17,7 11 6 18 10 W 1026,2 55 24 0,0
12.09.2019 08:00:00 15,8 12,8 15,0 14,3 16,4 17,8 8 5 13 7 SW 1025,6 34 38 0,0
12.09.2019 07:00:00 14,5 12,5 11,4 14,1 16,5 17,8 5 3 13 7 SW 1025,1 36 0 0,0
12.09.2019 06:00:00 15,5 12,6 14,7 14,8 16,6 17,8 7 4 18 10 W 1024,7 51 0 0,0
12.09.2019 05:00:00 15,9 12,5 15,0 15,0 16,7 17,8 9 5 21 11 WSW 1024,5 69 0 0,0
12.09.2019 04:00:00 15,8 12,5 15,0 15,0 16,9 17,8 9 5 16 8 W 1024,3 69 0 0,0
12.09.2019 03:00:00 15,1 12,6 14,1 15,1 17,0 17,8 5 3 16 9 WSW 1023,8 46 0 0,0
12.09.2019 02:00:00 15,1 12,3 14,0 15,2 17,2 17,8 8 4 18 10 WSW 1023,6 6 0 0,0
12.09.2019 01:00:00 15,3 12,3 14,5 15,3 17,4 17,9 10 5 27 14 SW 1023,2 50 0 0,0
12.09.2019 00:00:00 15,9 11,6 14,8 15,6 17,6 17,9 10 5 22 12 W 1023,0 49 0 0,0
11.09.2019 23:00:00 15,8 11,6 14,7 15,9 17,8 17,9 5 3 23 12 WNW 1022,6 46 0 0,2
11.09.2019 22:00:00 18,2 7,6 16,4 16,4 18,0 17,9 10 6 21 11 WSW 1022,2 54 0 0,0
11.09.2019 21:00:00 18,4 7,4 14,9 17,0 18,2 17,9 8 4 14 8 SSW 1021,6 56 0 0,0
11.09.2019 20:00:00 20,0 7,0 17,6 18,4 18,2 17,9 9 5 21 11 WSW 1021,2 71 0 0,0
11.09.2019 19:00:00 21,2 6,6 19,2 20,0 18,1 17,9 12 7 23 12 SW 1020,6 65 0 0,0
11.09.2019 18:00:00 21,8 6,3 20,3 21,8 17,8 18,0 13 7 29 16 SW 1020,8 62 25 0,0
11.09.2019 17:00:00 22,2 6,2 22,4 23,2 17,4 18,0 14 8 28 15 SW 1020,6 57 24 0,0
11.09.2019 16:00:00 22,1 6,7 22,6 24,5 16,7 18,0 16 9 34 18 WSW 1020,7 53 51 0,0
11.09.2019 15:00:00 22,3 5,4 25,6 25,4 16,0 18,0 16 9 32 17 SW 1020,9 56 59 0,0
11.09.2019 14:00:00 21,4 6,5 24,7 23,3 15,2 18,0 15 8 31 17 SW 1021,6 60 45 0,0
11.09.2019 13:00:00 20,9 6,6 24,4 22,5 14,6 18,0 16 8 28 15 SSW 1021,8 75 58 0,0
11.09.2019 12:00:00 20,1 6,2 22,0 20,2 14,0 18,0 16 9 30 16 S 1022,1 12 60 0,0
11.09.2019 11:00:00 18,4 7,2 19,7 17,7 13,6 18,0 13 7 21 11 SSW 1022,7 43 60 0,0
11.09.2019 10:00:00 15,4 8,2 15,8 14,0 13,5 18,1 8 4 15 8 S 1022,6 38 60 0,0
11.09.2019 09:00:00 12,2 6,6 11,4 10,1 13,7 18,1 5 3 9 5 S 1022,5 46 60 0,0
11.09.2019 08:00:00 8,6 5,8 6,2 8,2 13,9 18,1 3 2 6 4 S 1022,4 32 34 0,0
11.09.2019 07:00:00 7,1 5,8 4,3 7,8 14,2 18,1 5 3 7 4 WSW 1022,1 27 0 0,0
11.09.2019 06:00:00 7,6 5,9 4,4 8,2 14,4 18,1 3 2 9 5 WSW 1021,8 31 0 0,0
11.09.2019 05:00:00 9,0 5,8 5,3 8,6 14,7 18,1 6 3 11 6 WSW 1021,6 39 0 0,0
11.09.2019 04:00:00 8,4 6,0 5,0 8,9 15,0 18,1 4 2 8 4 SW 1021,6 41 0 0,0
11.09.2019 03:00:00 9,2 6,2 5,8 9,4 15,3 18,2 4 2 11 6 SW 1021,3 40 0 0,0
11.09.2019 02:00:00 10,8 6,1 7,2 9,8 15,7 18,2 6 3 13 7 W 1021,0 44 0 0,0
11.09.2019 01:00:00 11,2 6,2 7,0 10,3 16,0 18,2 6 3 15 8 SW 1020,7 52 0 0,0
11.09.2019 00:00:00 12,3 6,3 7,9 10,8 16,3 18,2 6 4 13 7 SW 1020,3 49 0 0,0
10.09.2019 23:00:00 13,1 6,4 9,1 11,5 16,7 18,2 7 4 14 7 SW 1019,9 47 0 0,0
10.09.2019 22:00:00 12,8 6,6 8,6 12,2 17,0 18,2 6 3 11 6 SW 1019,7 54 0 0,0
10.09.2019 21:00:00 14,4 6,1 8,9 13,3 17,2 18,2 6 3 10 6 SW 1019,2 57 0 0,0
10.09.2019 20:00:00 15,1 6,5 11,1 14,7 17,4 18,2 8 4 21 11 W 1018,6 66 16 0,0
10.09.2019 19:00:00 18,0 5,5 16,5 16,7 17,4 18,3 10 6 26 14 W 1017,9 62 60 0,0
10.09.2019 18:00:00 19,0 5,0 18,9 18,2 17,3 18,3 15 8 31 17 W 1017,5 63 55 0,0
10.09.2019 17:00:00 19,2 5,6 20,5 18,3 17,1 18,3 9 5 28 15 WNW 1017,2 70 16 0,0
10.09.2019 16:00:00 19,2 4,3 19,5 20,6 16,8 18,3 16 9 35 19 W 1016,9 72 52 0,0
10.09.2019 15:00:00 19,2 5,6 21,7 20,9 16,4 18,3 17 9 35 19 W 1016,5 56 55 0,0
10.09.2019 14:00:00 18,0 6,8 20,3 18,5 16,0 18,3 16 9 39 21 W 1016,6 62 23 0,0
10.09.2019 13:00:00 17,8 8,2 20,8 20,0 15,6 18,3 16 8 36 19 W 1016,2 65 51 0,0
10.09.2019 12:00:00 17,0 8,6 19,0 18,9 15,3 18,3 18 10 36 19 W 1016,5 39 60 0,0
10.09.2019 11:00:00 15,9 8,6 17,2 17,1 15,0 18,3 21 11 38 20 W 1016,2 46 60 0,0
10.09.2019 10:00:00 14,6 9,3 15,4 14,8 15,0 18,4 16 9 30 16 W 1015,8 48 60 0,0
10.09.2019 09:00:00 13,2 9,4 13,0 12,0 15,1 18,4 14 7 27 15 W 1015,3 39 60 0,0
10.09.2019 08:00:00 11,6 9,4 9,9 10,5 15,3 18,4 12 6 22 12 W 1014,9 26 42 0,0
10.09.2019 07:00:00 10,7 9,2 8,9 10,4 15,5 18,4 9 5 20 11 W 1014,7 15 0 0,0
10.09.2019 06:00:00 11,0 9,5 9,2 10,9 15,8 18,4 9 5 22 12 W 1014,2 13 0 0,0
10.09.2019 05:00:00 11,5 9,9 9,5 11,3 16,0 18,4 10 5 19 10 WSW 1013,6 13 0 0,0
10.09.2019 04:00:00 12,1 10,4 10,2 12,1 16,1 18,4 11 6 25 13 W 1013,3 13 0 0,0
10.09.2019 03:00:00 12,9 11,0 11,8 12,6 16,3 18,4 13 7 22 12 W 1013,3 13 0 0,0
10.09.2019 02:00:00 12,4 10,8 11,3 12,6 16,5 18,4 9 5 19 10 W 1013,4 10 0 0,0
10.09.2019 01:00:00 12,5 11,2 11,2 12,8 16,6 18,4 10 6 19 11 W 1013,0 10 0 0,0
10.09.2019 00:00:00 12,5 11,3 11,0 13,2 16,8 18,4 9 5 18 10 WSW 1013,0 12 0 0,0
09.09.2019 23:00:00 13,0 11,9 12,1 13,9 17,0 18,4 6 3 14 8 W 1013,2 10 0 0,2
09.09.2019 22:00:00 13,1 12,1 12,3 14,1 17,1 18,5 8 4 15 8 W 1013,2 9 0 1,0
09.09.2019 21:00:00 13,1 12,0 12,4 14,3 17,2 18,5 5 3 12 6 W 1013,0 11 0 0,9
09.09.2019 20:00:00 13,2 11,7 12,3 14,6 17,4 18,5 6 3 16 9 WNW 1012,4 12 0 0,7
09.09.2019 19:00:00 13,7 12,4 12,9 15,0 17,5 18,5 7 4 15 8 WNW 1011,8 10 0 1,5
09.09.2019 18:00:00 14,0 12,6 13,2 15,3 17,5 18,5 6 4 20 11 NW 1011,7 11 0 0,4
09.09.2019 17:00:00 14,1 12,8 13,5 15,6 17,6 18,5 7 4 20 11 WNW 1011,6 10 0 1,4
09.09.2019 16:00:00 14,2 12,8 13,6 16,0 17,7 18,5 8 4 16 9 WNW 1012,0 11 0 2,0
09.09.2019 15:00:00 14,0 12,5 13,4 16,1 17,7 18,5 6 3 16 9 NW 1012,1 9 0 1,3
09.09.2019 14:00:00 14,0 12,0 13,4 16,5 17,7 18,5 6 4 19 11 NW 1011,9 17 0 0,7
09.09.2019 13:00:00 13,9 11,7 13,2 16,5 17,7 18,5 8 4 20 11 NNW 1012,0 17 0 1,0
09.09.2019 12:00:00 13,7 11,0 12,9 16,4 17,7 18,5 9 5 21 12 NNW 1012,6 16 0 0,4
09.09.2019 11:00:00 14,0 10,9 13,2 16,2 17,8 18,5 7 4 16 9 NNW 1012,8 19 0 0,2
09.09.2019 10:00:00 13,7 11,2 13,0 15,7 17,9 18,6 3 1 10 5 NW 1013,1 24 0 0,0

tt = temperature
td = dewpoint
tt 5cm = temperature 5cm
tt -5cm = temperature -5cm
tt -20cm = temperature -20cm
tt -100cm = temperature -100cm
ff = wind speed
fx = gusts
dd = wind direction
ppp = reduced air pressure
vv = visibility
sd = sunshine duration
rr = precipitation

Next stations